Regional Weather Roundup
Issued by NWS

Home | Current Version | Previous Version | Text Only | Print | Product List | Glossary On
Versions: 1 2 3 4 5 6 7 8 9 10 11 12 13 14 15 16 17 18 19 20 21 22 23 24 25 26 27 28 29 30 31 32 33 34 35 36 37 38 39 40 41 42 43 44 45 46 47 48 49 50
000
ASUS43 KMPX 241301
RWRMN
WEATHER ROUNDUP FOR MINNESOTA
NATIONAL WEATHER SERVICE TWIN CITIES/CHANHASSEN MN
700 AM CST SAT FEB 24 2018


NOTE: "FAIR" INDICATES FEW OR NO CLOUDS BELOW 12,000 FEET WITH NO
SIGNIFICANT WEATHER AND/OR OBSTRUCTIONS TO VISIBILITY. N/A MEANS
CURRENT SKY AND/OR WEATHER CONDITIONS ARE NOT AVAILABLE.

MNZ060>063-068>070-241400-
   Twin Cities Metro

CITY           SKY/WX    TMP DP  RH WIND       PRES   REMARKS
TWIN CITIES    MOCLDY    10   8  92 NE6       30.16F FOG     WCI   0
ST PAUL        CLOUDY    11   6  81 E3        30.19S HAZE
CRYSTAL        FAIR       6   2  83 CALM      30.16F
BLAINE         FOG        3   0  85 CALM      30.15S VSB 1/8
LAKEVILLE      FOG        0  -2  92 CALM      30.15S VSB<1/4
EDEN PRAIRIE   FAIR       5   1  83 NE5       30.13F FOG     WCI  -4
SOUTH ST PAUL  CLOUDY     8   4  86 CALM      30.17F FOG
LAKE ELMO      LGT SNOW N/A N/A N/A CALM      30.17F
$$
MNZ001>005-007-008-013>017-022>024-027-028-241400-
   Northwest Minnesota

CITY           SKY/WX    TMP DP  RH WIND       PRES   REMARKS
BEMIDJI        FAIR      -6  -9  86 CALM      30.07S
HALLOCK        FAIR       1  -2  85 S16       30.01F WCI -18
ROSEAU         FAIR       1  -4  78 S9        30.03F WCI -14
WARROAD        FAIR       1  -2  85 S3        30.04F
THIEF RVR FALL FAIR       0  -3  87 S9        30.05F WCI -15
CROOKSTON      LGT SNOW   1  -2  85 S10       30.06F WCI -14
FOSSTON        FAIR      -2  -6  84 SE5       30.05F WCI -12
DETROIT LAKES  FAIR       0  -6  78 S3        30.09R
MOORHEAD       MIX PCPN  -8 -11  84 S7        30.11S WCI -22
PARK RAPIDS    FAIR     -15 -20  78 SW5       30.08R WCI -27
MAHNOMEN       FAIR       3   0  86 SE6       30.06F WCI  -8
$$
MNZ006-009>011-018-025>026-241400-
   North Central Minnesota

CITY           SKY/WX    TMP DP  RH WIND       PRES   REMARKS
BAUDETTE       FAIR      -2  -5  87 SE5       30.05F WCI -12
FLAG ISLAND    LGT SNOW  -6  -9  84 S8        30.03F VSB 3/4 WCI -21
INTL FALLS     FAIR      -9 -13  83 VRB3      30.11R
WASKISH        FAIR      -4  -8  84 SE3       30.08F
LONGVILLE      FAIR     -13 -18  77 CALM      30.10F
GRAND RAPIDS   FAIR      -9 -12  87 S5        30.13F WCI -20
CRANE LAKE     FLURRIES -13 -17  84 CALM      30.16S
ORR            FAIR      -6 -11  77 CALM      30.08F
COOK             N/A    -15 -18  84 CALM      30.12F
WALKER         FAIR     -10 -14  82 E5        30.08S WCI -21
$$
MNZ012-019>021-037-241400-
   Northeast Minnesota

CITY           SKY/WX    TMP DP  RH WIND       PRES   REMARKS
DULUTH         FAIR       4  -1  80 CALM      30.13S
ELY            FAIR     -15 -18  84 CALM      30.13S
HIBBING        FAIR     -15 -19  82 CALM      30.12F
DULUTH HARBOR  FAIR       7   3  85 CALM      30.20F
TWO HARBORS    FAIR       5   0  78 CALM      30.14S
GRAND MARAIS     N/A      3  -1  83 CALM      30.20R
G MARAIS ARPRT FAIR       5   0  78 N5        30.08S WCI  -4
$$
MNZ029>031-032-039>041-046>048-054>057-064-241400-
   West Central Minnesota

CITY           SKY/WX    TMP DP  RH WIND       PRES   REMARKS
FERGUS FALLS   FLURRIES   0  -4  85 SE7       30.13F WCI -13
WHEATON        CLOUDY    -4  -8  84 CALM      30.12F
MORRIS         CLOUDY    -6  -9  84 SE3       30.10F
ALEXANDRIA     FAIR       2  -1  88 SE6       30.10F WCI  -9
ELBOW LAKE     FAIR       0  -3  87 SE5       30.11F WCI -10
WADENA         FAIR      -9 -13  84 CALM      30.10R
GLENWOOD       FAIR      -4  -8  84 E5        30.11F WCI -15
APPLETON       CLOUDY    -6  -9  84 CALM      30.13F
BENSON         CLOUDY    -9 -15  77 CALM      30.13F
MADISON        CLOUDY     1  -2  85 CALM      30.11F
WILLMAR        FAIR      -2  -6  84 CALM      30.14S
$$
MNZ033>034-036-042>043-049>051-058-059-241400-
   Central Minnesota

CITY           SKY/WX    TMP DP  RH WIND       PRES   REMARKS
ST CLOUD       FAIR      -6 -10  83 CALM      30.15F
SAUK CENTRE    FAIR      -7 -10  84 CALM      30.13F
PAYNESVILLE    FAIR      -4  -6  89 CALM      30.13F
AITKIN         FAIR     -13 -17  84 CALM      30.13S
PINE RIVER     FAIR     -11 -17  77 CALM      30.15R
BRAINERD       FAIR     -10 -18  67 N3        30.13S
STAPLES        FAIR      -9 -13  84 S3        30.11S
LONG PRAIRIE   FAIR      -6  -9  84 CALM      30.13F
LITTLE FALLS   FAIR      -4 -11  71 CALM      30.16S
LITCHFIELD     FAIR       0  -2  92 CALM      30.15R
BUFFALO        FAIR      -2  -6  84 CALM      30.17R
MAPLE LAKE     FAIR      -2  -5  88 CALM      30.16S
HUTCHINSON     FAIR      -2  -5  85 CALM      30.14S
$$
MNZ037-044-045-052-053-241400-
   East Central Minnesota

CITY           SKY/WX    TMP DP  RH WIND       PRES   REMARKS
PRINCETON      FAIR      -8 -11  84 CALM      30.15F
CAMBRIDGE        N/A     -2  -9  71 CALM      30.17F
RUSH CITY      FOG       -1  -4  85 CALM      30.18F VSB 1/2
MOOSE LAKE     FAIR      -8 -13  77 CALM      30.15S
HINCKLEY       FAIR      -6  -8  92 CALM      30.18S
CLOQUET        FAIR       1  -2  85 CALM      30.14S
MCGREGOR       FAIR      -6  -8  92 CALM      30.14S
$$
MNZ071>073-080-081-089-090-097-098-241400-
   Southwest Minnesota

CITY           SKY/WX    TMP DP  RH WIND       PRES   REMARKS
MONTEVIDEO     CLOUDY    -6  -9  84 CALM      30.12F
GRANITE FALLS  CLOUDY     0  -4  84 CALM      30.15F FOG
CANBY          CLOUDY     3   0  86 CALM      30.09F
MARSHALL       CLOUDY     4   1  88 CALM      30.09F
REDWOOD FALLS  CLOUDY     0  -3  87 N3        30.12F
OLIVIA         PTCLDY     1  -2  85 CALM      30.13F
PIPESTONE      CLOUDY    10   9  92 CALM      29.99F
WORTHINGTON    CLOUDY    10   8  92 NE8       30.02F FOG     WCI  -2
JACKSON        LGT SNOW   9   7  92 CALM      30.04F
TRACY          CLOUDY    11   9  92 CALM      30.07F
SLAYTON        CLOUDY    12  10  92 CALM      30.03F
$$
MNZ065>067-074>077-082>085-091>093-241400-
   South Central Minnesota

CITY           SKY/WX    TMP DP  RH WIND       PRES   REMARKS
MANKATO        MOCLDY     1  -2  85 CALM      30.13F FOG
NEW ULM        CLOUDY     1  -4  78 CALM      30.13S
ST JAMES       FOG        3   0  85 CALM      30.12F VSB 1/4
FAIRMONT       FOG        8   6  92 N3        30.10F VSB 1/4
GLENCOE        FAIR       0  -3  87 CALM      30.14F
FARIBAULT      FAIR       0  -4  85 CALM      30.13F FOG
OWATONNA       FAIR       5   1  85 CALM      30.10F
WASECA         FAIR       9   5  85 NE3       30.12F
ALBERT LEA     FAIR       9   7  92 CALM      30.09F
$$
MNZ078>079-086>088-094>096-241400-
   Southeast Minnesota

CITY           SKY/WX    TMP DP  RH WIND       PRES   REMARKS
ROCHESTER      FRZ RAIN  10   9  95 NE6       30.10F VSB 1/4 WCI   0
RED WING       LGT SNOW  12   7  79 CALM      30.17F VSB 1
STANTON        LGT SNOW   1  -3  82 CALM      30.14F
DODGE CENTER   SNOW       9   5  85 CALM      30.10S VSB 1/4
WINONA         FOG       10   9  92 CALM      30.17F VSB 1/4
AUSTIN         FAIR      12  10  92 E3        30.09F FOG
PRESTON        FAIR      14  11  90 NE3       30.11F FOG
$$
ABBREVIATIONS USED IN REMARKS
   TC - TEMPERATURES IN CELSIUS
  WCI - WIND CHILL INDEX
   HX - HEAT INDEX
  VSB - VISIBILITY
$$



USA.gov is the U.S. government's official web portal to all federal, state and local government web resources and services.